Date,TemperatureHighF,TemperatureAvgF,TemperatureLowF,DewpointHighF,DewpointAvgF,DewpointLowF,HumidityHigh,HumidityAvg,HumidityLow,PressureMaxIn,PressureMinIn,WindSpeedMaxMPH,WindSpeedAvgMPH,GustSpeedMaxMPH,PrecipitationSumIn
2013-2-1,32.7,27.1,21.4,19.7,12.7,5.2,72,55,41,29.73,29.23,26,9,26,0.00
2013-2-2,31.1,23.5,11.8,14.7,9.0,4.6,77,54,40,29.89,29.69,14,3,15,0.00
2013-2-3,29.7,23.7,15.8,24.2,20.5,14.7,96,88,64,29.71,29.38,11,2,11,0.00
2013-2-4,30.6,23.6,15.6,21.0,13.2,7.7,99,67,43,29.52,29.37,25,8,25,0.00
2013-2-5,31.1,23.5,16.9,17.3,11.9,6.4,79,61,48,29.69,29.57,8,2,8,0.00
2013-2-6,39.2,28.5,19.9,32.3,19.7,7.3,99,71,48,29.95,29.57,17,4,17,0.01
2013-2-7,30.7,21.3,9.7,7.6,3.8,1.3,76,48,31,30.19,29.95,11,2,11,0.00
2013-2-8,23.5,20.2,15.8,20.4,16.1,4.8,99,86,45,30.15,29.33,11,3,11,0.00
2013-2-9,21.2,17.6,14.0,18.6,12.8,3.0,99,83,61,29.84,29.28,22,11,22,0.00
2013-2-10,41.0,22.3,7.9,13.0,3.8,-1.1,83,50,18,30.04,29.85,14,4,14,0.00
2013-2-11,34.5,24.4,8.1,34.3,22.1,4.0,99,91,78,30.00,29.25,4,0,4,0.14
2013-2-12,46.9,37.8,30.9,35.2,31.6,28.7,99,80,55,29.52,29.24,24,6,24,0.11
2013-2-13,47.8,34.7,22.8,34.5,26.0,20.9,95,72,46,29.53,29.37,12,2,13,0.00
2013-2-14,49.1,34.1,23.4,28.4,24.2,20.6,95,69,40,29.65,29.35,12,2,12,0.00
2013-2-15,58.5,36.0,18.9,38.0,29.0,18.7,99,79,46,29.65,29.54,9,1,9,0.00
2013-2-16,42.4,34.3,25.3,37.1,28.0,18.4,99,79,57,29.62,29.39,14,3,14,0.07
2013-2-17,28.0,20.6,14.9,19.2,10.6,2.8,97,66,48,29.39,29.03,35,15,35,0.01
2013-2-18,32.0,21.4,13.3,5.7,3.1,0.1,61,46,29,29.81,29.32,30,11,30,0.00
2013-2-19,50.0,35.1,18.5,39.5,23.3,4.8,99,65,30,29.82,29.22,11,2,11,0.22
2013-2-20,38.8,32.0,25.2,38.6,22.9,15.0,99,70,50,29.42,29.19,23,9,23,0.00
2013-2-21,35.2,26.6,22.3,17.5,15.3,11.7,76,63,44,29.86,29.42,27,9,27,0.00
2013-2-22,48.6,33.4,21.4,26.3,22.1,17.3,88,66,37,30.06,29.86,13,3,13,0.00
2013-2-23,38.7,33.3,27.3,33.2,29.9,24.5,99,88,75,30.00,29.59,10,2,10,0.00
2013-2-24,36.7,33.0,29.8,36.2,32.7,29.6,99,99,97,29.60,29.37,5,0,5,0.39
2013-2-25,56.3,34.6,28.0,41.7,32.5,27.8,99,93,53,29.90,29.56,5,0,5,0.33
2013-2-26,50.4,35.1,26.6,41.9,31.0,26.4,99,86,63,30.00,29.84,8,1,8,0.01
2013-2-27,40.6,36.1,31.6,40.4,35.7,30.6,99,98,92,29.84,29.24,17,4,17,1.09
2013-2-28,54.0,39.3,32.5,41.1,35.8,32.3,99,88,59,29.29,29.19,8,2,8,0.00